sat.trackr.live / text

‹ back to catalog

LEMUR-2-JOHNNYTRUONG

NORAD 59146 · 2024-043BA

PAYLOAD ACTIVE UNKNOWN

§ Identity

Operator
Country
US
Launch date
2024-03-04
Launch site
AFWTR
Launch vehicle
Mass (kg)
RCS (m²)

Purposes: earth_obs

External: N2YO · Heavens-Above · Gunter

§ Orbital elements

Epoch: 2026-09-19T21:37:50.890080Z

Period
91.84 min
Inclination
97.5448°
Eccentricity
0.0003516
Mean motion
15.67993754 rev/d
Perigee alt
362.3 km
Apogee alt
367.0 km
Semi-major
6,742.8 km
B*
3.9051e-4
RAAN
61.0536°
Arg perigee
186.8326°
Mean anomaly
173.2887°
Rev number
14,284

§ Raw data

LEMUR-2-JOHNNYTRUONG1 59146U 24043BA  26262.90128345  .00043202  00000+0  39051-3 0  99992 59146  97.5448  61.0536 0003516 186.8326 173.2887 15.67993754142845

JSON: /api/v1/satellites/59146 · /tle

For live sub-satellite position, see the globe view (requires WebGL).

§ Visibility from observer

Set your observer location to see the next 7 days of passes ≥ 10°. The values pass through the URL so the page stays shareable.

No JS? Fill the form by hand. The geolocation button needs JavaScript.